Time,TemperatureF,DewpointF,PressureIn,WindDirection,WindDirectionDegrees,WindSpeedMPH,WindSpeedGustMPH,Humidity,HourlyPrecipIn,Conditions,Clouds,dailyrainin,SoftwareType,DateUTC
2013-09-14 00:14:00,52.0,-99.9,-100.00,North,-999,-999.0,-999.0,-999,0.00,,,0.88,,2013-09-14 04:14:00,
2013-09-14 00:24:00,52.0,-99.9,-100.00,North,-999,-999.0,-999.0,-999,0.00,,,0.88,,2013-09-14 04:24:00,
2013-09-14 00:34:00,52.0,-99.9,-100.00,North,-999,-999.0,-999.0,-999,0.00,,,0.88,,2013-09-14 04:34:00,
2013-09-14 00:44:00,52.0,-99.9,-100.00,North,-999,-999.0,-999.0,-999,0.00,,,0.88,,2013-09-14 04:44:00,
2013-09-14 01:13:00,52.0,-99.9,-100.00,North,-999,-999.0,-999.0,-999,0.00,,,0.78,,2013-09-14 05:13:00,
2013-09-14 01:23:00,52.0,-99.9,-100.00,North,-999,-999.0,-999.0,-999,0.00,,,0.78,,2013-09-14 05:23:00,
2013-09-14 01:34:00,52.0,-99.9,-100.00,North,-999,-999.0,-999.0,-999,0.00,,,0.78,,2013-09-14 05:34:00,
2013-09-14 01:43:00,52.0,-99.9,-100.00,North,-999,-999.0,-999.0,-999,0.00,,,0.78,,2013-09-14 05:43:00,
2013-09-14 02:12:00,54.0,-99.9,-100.00,North,-999,-999.0,-999.0,-999,0.00,,,0.74,,2013-09-14 06:12:00,
2013-09-14 02:22:00,54.0,-99.9,-100.00,North,-999,-999.0,-999.0,-999,0.00,,,0.74,,2013-09-14 06:22:00,
2013-09-14 02:32:00,54.0,-99.9,-100.00,North,-999,-999.0,-999.0,-999,0.00,,,0.74,,2013-09-14 06:32:00,
2013-09-14 02:42:00,54.0,-99.9,-100.00,North,-999,-999.0,-999.0,-999,0.00,,,0.74,,2013-09-14 06:42:00,
2013-09-14 03:12:00,54.0,-99.9,-100.00,North,-999,-999.0,-999.0,-999,0.00,,,0.46,,2013-09-14 07:12:00,
2013-09-14 03:22:00,54.0,-99.9,-100.00,North,-999,-999.0,-999.0,-999,0.00,,,0.46,,2013-09-14 07:22:00,
2013-09-14 03:34:00,54.0,-99.9,-100.00,North,-999,-999.0,-999.0,-999,0.00,,,0.46,,2013-09-14 07:34:00,
2013-09-14 03:43:00,54.0,-99.9,-100.00,North,-999,-999.0,-999.0,-999,0.00,,,0.46,,2013-09-14 07:43:00,
2013-09-14 04:12:00,54.0,-99.9,-100.00,North,-999,-999.0,-999.0,-999,0.00,,,0.45,,2013-09-14 08:12:00,
2013-09-14 04:22:00,54.0,-99.9,-100.00,North,-999,-999.0,-999.0,-999,0.00,,,0.45,,2013-09-14 08:22:00,
2013-09-14 04:32:00,54.0,-99.9,-100.00,North,-999,-999.0,-999.0,-999,0.00,,,0.45,,2013-09-14 08:32:00,
2013-09-14 04:42:00,54.0,-99.9,-100.00,North,-999,-999.0,-999.0,-999,0.00,,,0.45,,2013-09-14 08:42:00,
2013-09-14 05:12:00,55.0,-99.9,-100.00,North,-999,-999.0,-999.0,-999,0.00,,,0.44,,2013-09-14 09:12:00,
2013-09-14 05:22:00,55.0,-99.9,-100.00,North,-999,-999.0,-999.0,-999,0.00,,,0.44,,2013-09-14 09:22:00,
2013-09-14 05:33:00,55.0,-99.9,-100.00,North,-999,-999.0,-999.0,-999,0.00,,,0.44,,2013-09-14 09:33:00,
2013-09-14 05:44:00,55.0,-99.9,-100.00,North,-999,-999.0,-999.0,-999,0.00,,,0.44,,2013-09-14 09:44:00,
2013-09-14 06:13:00,55.0,-99.9,-100.00,North,-999,-999.0,-999.0,-999,0.10,,,0.54,,2013-09-14 10:13:00,
2013-09-14 06:24:00,55.0,-99.9,-100.00,North,-999,-999.0,-999.0,-999,0.10,,,0.54,,2013-09-14 10:24:00,
2013-09-14 06:33:00,55.0,-99.9,-100.00,North,-999,-999.0,-999.0,-999,0.10,,,0.54,,2013-09-14 10:33:00,
2013-09-14 06:43:00,55.0,-99.9,-100.00,North,-999,-999.0,-999.0,-999,0.10,,,0.54,,2013-09-14 10:43:00,
2013-09-14 07:12:00,54.0,-99.9,-100.00,North,-999,-999.0,-999.0,-999,0.02,,,0.56,,2013-09-14 11:12:00,
2013-09-14 07:22:00,54.0,-99.9,-100.00,North,-999,-999.0,-999.0,-999,0.02,,,0.56,,2013-09-14 11:22:00,
2013-09-14 07:33:00,54.0,-99.9,-100.00,North,-999,-999.0,-999.0,-999,0.02,,,0.56,,2013-09-14 11:33:00,
2013-09-14 07:42:00,54.0,-99.9,-100.00,North,-999,-999.0,-999.0,-999,0.02,,,0.56,,2013-09-14 11:42:00,
2013-09-14 08:12:00,55.0,-99.9,-100.00,North,-999,-999.0,-999.0,-999,0.00,,,0.55,,2013-09-14 12:12:00,
2013-09-14 08:22:00,55.0,-99.9,-100.00,North,-999,-999.0,-999.0,-999,0.00,,,0.55,,2013-09-14 12:22:00,
2013-09-14 08:32:00,55.0,-99.9,-100.00,North,-999,-999.0,-999.0,-999,0.00,,,0.55,,2013-09-14 12:32:00,
2013-09-14 08:42:00,55.0,-99.9,-100.00,North,-999,-999.0,-999.0,-999,0.00,,,0.55,,2013-09-14 12:42:00,
2013-09-14 09:12:00,56.0,-99.9,-100.00,North,-999,-999.0,-999.0,-999,0.00,,,0.55,,2013-09-14 13:12:00,
2013-09-14 09:22:00,56.0,-99.9,-100.00,North,-999,-999.0,-999.0,-999,0.00,,,0.55,,2013-09-14 13:22:00,
2013-09-14 09:32:00,56.0,-99.9,-100.00,North,-999,-999.0,-999.0,-999,0.00,,,0.55,,2013-09-14 13:32:00,
2013-09-14 09:42:00,56.0,-99.9,-100.00,North,-999,-999.0,-999.0,-999,0.00,,,0.55,,2013-09-14 13:42:00,
2013-09-14 10:22:00,57.0,-99.9,-100.00,North,-999,-999.0,-999.0,-999,0.00,,,0.55,,2013-09-14 14:22:00,
2013-09-14 10:32:00,57.0,-99.9,-100.00,North,-999,-999.0,-999.0,-999,0.00,,,0.55,,2013-09-14 14:32:00,
2013-09-14 10:43:00,57.0,-99.9,-100.00,North,-999,-999.0,-999.0,-999,0.00,,,0.55,,2013-09-14 14:43:00,
2013-09-14 11:11:00,62.0,-99.9,-100.00,North,-999,-999.0,-999.0,-999,0.00,,,0.55,,2013-09-14 15:11:00,
2013-09-14 11:22:00,62.0,-99.9,-100.00,North,-999,-999.0,-999.0,-999,0.00,,,0.55,,2013-09-14 15:22:00,
2013-09-14 11:33:00,62.0,-99.9,-100.00,North,-999,-999.0,-999.0,-999,0.00,,,0.55,,2013-09-14 15:33:00,
2013-09-14 11:44:00,62.0,-99.9,-100.00,North,-999,-999.0,-999.0,-999,0.00,,,0.55,,2013-09-14 15:44:00,
2013-09-14 12:14:00,64.0,-99.9,-100.00,North,-999,-999.0,-999.0,-999,0.00,,,0.55,,2013-09-14 16:14:00,
2013-09-14 12:24:00,64.0,-99.9,-100.00,North,-999,-999.0,-999.0,-999,0.00,,,0.55,,2013-09-14 16:24:00,
2013-09-14 12:33:00,64.0,-99.9,-100.00,North,-999,-999.0,-999.0,-999,0.00,,,0.55,,2013-09-14 16:33:00,
2013-09-14 12:44:00,64.0,-99.9,-100.00,North,-999,-999.0,-999.0,-999,0.00,,,0.55,,2013-09-14 16:44:00,
2013-09-14 13:12:00,65.0,-99.9,-100.00,North,-999,-999.0,-999.0,-999,0.00,,,0.48,,2013-09-14 17:12:00,
2013-09-14 13:24:00,65.0,-99.9,-100.00,North,-999,-999.0,-999.0,-999,0.00,,,0.48,,2013-09-14 17:24:00,
2013-09-14 13:33:00,65.0,-99.9,-100.00,North,-999,-999.0,-999.0,-999,0.00,,,0.48,,2013-09-14 17:33:00,
2013-09-14 13:43:00,65.0,-99.9,-100.00,North,-999,-999.0,-999.0,-999,0.00,,,0.48,,2013-09-14 17:43:00,
2013-09-14 14:12:00,64.0,-99.9,-100.00,North,-999,-999.0,-999.0,-999,0.00,,,0.41,,2013-09-14 18:12:00,
2013-09-14 14:22:00,64.0,-99.9,-100.00,North,-999,-999.0,-999.0,-999,0.00,,,0.41,,2013-09-14 18:22:00,
2013-09-14 14:32:00,64.0,-99.9,-100.00,North,-999,-999.0,-999.0,-999,0.00,,,0.41,,2013-09-14 18:32:00,
2013-09-14 14:43:00,64.0,-99.9,-100.00,North,-999,-999.0,-999.0,-999,0.00,,,0.41,,2013-09-14 18:43:00,
2013-09-14 15:12:00,63.0,-99.9,-100.00,North,-999,-999.0,-999.0,-999,0.00,,,0.16,,2013-09-14 19:12:00,
2013-09-14 15:22:00,63.0,-99.9,-100.00,North,-999,-999.0,-999.0,-999,0.00,,,0.16,,2013-09-14 19:22:00,
2013-09-14 15:32:00,63.0,-99.9,-100.00,North,-999,-999.0,-999.0,-999,0.00,,,0.16,,2013-09-14 19:32:00,
2013-09-14 15:42:00,63.0,-99.9,-100.00,North,-999,-999.0,-999.0,-999,0.00,,,0.16,,2013-09-14 19:42:00,
2013-09-14 16:12:00,62.0,-99.9,-100.00,North,-999,-999.0,-999.0,-999,0.00,,,0.15,,2013-09-14 20:12:00,
2013-09-14 16:22:00,62.0,-99.9,-100.00,North,-999,-999.0,-999.0,-999,0.00,,,0.15,,2013-09-14 20:22:00,
2013-09-14 16:32:00,62.0,-99.9,-100.00,North,-999,-999.0,-999.0,-999,0.00,,,0.15,,2013-09-14 20:32:00,
2013-09-14 16:42:00,62.0,-99.9,-100.00,North,-999,-999.0,-999.0,-999,0.00,,,0.15,,2013-09-14 20:42:00,
2013-09-14 17:12:00,61.0,-99.9,-100.00,North,-999,-999.0,-999.0,-999,0.00,,,0.14,,2013-09-14 21:12:00,
2013-09-14 17:22:00,61.0,-99.9,-100.00,North,-999,-999.0,-999.0,-999,0.00,,,0.14,,2013-09-14 21:22:00,
2013-09-14 17:33:00,61.0,-99.9,-100.00,North,-999,-999.0,-999.0,-999,0.00,,,0.14,,2013-09-14 21:33:00,
2013-09-14 17:44:00,61.0,-99.9,-100.00,North,-999,-999.0,-999.0,-999,0.00,,,0.14,,2013-09-14 21:44:00,
2013-09-14 18:13:00,58.0,-99.9,-100.00,North,-999,-999.0,-999.0,-999,0.00,,,0.13,,2013-09-14 22:13:00,
2013-09-14 18:24:00,58.0,-99.9,-100.00,North,-999,-999.0,-999.0,-999,0.00,,,0.13,,2013-09-14 22:24:00,
2013-09-14 18:34:00,58.0,-99.9,-100.00,North,-999,-999.0,-999.0,-999,0.00,,,0.13,,2013-09-14 22:34:00,
2013-09-14 18:42:00,58.0,-99.9,-100.00,North,-999,-999.0,-999.0,-999,0.00,,,0.13,,2013-09-14 22:42:00,
2013-09-14 19:12:00,55.0,-99.9,-100.00,North,-999,-999.0,-999.0,-999,0.00,,,0.13,,2013-09-14 23:12:00,
2013-09-14 19:23:00,55.0,-99.9,-100.00,North,-999,-999.0,-999.0,-999,0.00,,,0.13,,2013-09-14 23:23:00,
2013-09-14 19:34:00,55.0,-99.9,-100.00,North,-999,-999.0,-999.0,-999,0.00,,,0.13,,2013-09-14 23:34:00,
2013-09-14 19:42:00,55.0,-99.9,-100.00,North,-999,-999.0,-999.0,-999,0.00,,,0.13,,2013-09-14 23:42:00,
2013-09-14 20:12:00,53.0,-99.9,-100.00,North,-999,-999.0,-999.0,-999,0.00,,,0.13,,2013-09-15 00:12:00,
2013-09-14 20:22:00,53.0,-99.9,-100.00,North,-999,-999.0,-999.0,-999,0.00,,,0.13,,2013-09-15 00:22:00,
2013-09-14 20:32:00,53.0,-99.9,-100.00,North,-999,-999.0,-999.0,-999,0.00,,,0.13,,2013-09-15 00:32:00,
2013-09-14 20:43:00,53.0,-99.9,-100.00,North,-999,-999.0,-999.0,-999,0.00,,,0.13,,2013-09-15 00:43:00,
2013-09-14 21:12:00,52.0,-99.9,-100.00,North,-999,-999.0,-999.0,-999,0.00,,,0.12,,2013-09-15 01:12:00,
2013-09-14 21:22:00,52.0,-99.9,-100.00,North,-999,-999.0,-999.0,-999,0.00,,,0.12,,2013-09-15 01:22:00,
2013-09-14 21:32:00,52.0,-99.9,-100.00,North,-999,-999.0,-999.0,-999,0.00,,,0.12,,2013-09-15 01:32:00,
2013-09-14 21:42:00,52.0,-99.9,-100.00,North,-999,-999.0,-999.0,-999,0.00,,,0.12,,2013-09-15 01:42:00,
2013-09-14 22:12:00,50.0,-99.9,-100.00,North,-999,-999.0,-999.0,-999,0.00,,,0.12,,2013-09-15 02:12:00,
2013-09-14 22:22:00,50.0,-99.9,-100.00,North,-999,-999.0,-999.0,-999,0.00,,,0.12,,2013-09-15 02:22:00,
2013-09-14 22:32:00,50.0,-99.9,-100.00,North,-999,-999.0,-999.0,-999,0.00,,,0.12,,2013-09-15 02:32:00,
2013-09-14 22:42:00,50.0,-99.9,-100.00,North,-999,-999.0,-999.0,-999,0.00,,,0.12,,2013-09-15 02:42:00,
2013-09-14 23:11:00,48.0,-99.9,-100.00,North,-999,-999.0,-999.0,-999,0.00,,,0.12,,2013-09-15 03:11:00,
2013-09-14 23:22:00,48.0,-99.9,-100.00,North,-999,-999.0,-999.0,-999,0.00,,,0.12,,2013-09-15 03:22:00,
2013-09-14 23:35:00,48.0,-99.9,-100.00,North,-999,-999.0,-999.0,-999,0.00,,,0.12,,2013-09-15 03:35:00,
2013-09-14 23:44:00,48.0,-99.9,-100.00,North,-999,-999.0,-999.0,-999,0.00,,,0.12,,2013-09-15 03:44:00,